Reflectivity
-20 1 8 -20 -19 -5 -13 8 12 -20 -15 -20 -20 -20 -20 -20 -20 -20 -20 -20 -20 -20 -20 -20 -20 -20 -20 -20 -20 -20 -20 -20 -20 -20 -20 -20 -20 -20 -20 14 3 27 -15 -20
1 12 -20 -20 -20 -20 -10 11 -20 -20 -20 -20 -20 -20 -20 -20 -20 -20 -20 -20 -20 -20 -20 -20 -20 -20 -20 -7 -10 -20 -20 -20 -20 -20 -20 -20 -20 -20 -20 6 14 -9 12 -17
-11 -20 -20 -20 -20 -20 -19 12 -11 -20 -20 -20 -20 -20 -20 -20 -20 -20 -20 -20 -20 -20 -20 -18 -16 -20 -6 -20 -8 -20 -20 -20 -20 -20 -20 -20 -20 -20 -20 10 21 25 4 -10
-20 -20 -20 -20 -20 -20 14 -20 -20 -14 -20 -11 -20 -7 -20 -20 -20 -20 -20 -20 -17 -3 -8 -3 -3 -13 -20 -17 -19 -20 -20 -20 -20 -20 -20 -20 -20 -20 -12 -20 20 21 17 0
-20 -20 -20 -11 -20 -20 11 -20 -12 6 -19 -20 -20 -20 -20 -20 -20 -20 -20 -20 -20 -2 6 4 2 -20 -20 -18 -17 -17 -19 -20 -20 -20 -20 -20 -20 -20 -20 -20 22 26 22 7
-20 -20 -20 -20 -20 -20 -18 -10 3 -1 3 -14 -10 -20 -20 -20 -20 -20 -20 -20 -18 -1 -9 9 11 13 -13 -20 -20 17 11 13 -13 -17 -4 -17 9 -20 13 -17 -3 27 13 18
-20 -20 -20 -20 -20 -20 -20 5 21 9 12 16 -20 -20 -14 -20 -20 -20 -20 -20 -8 -6 -12 -11 -10 -11 -2 -8 -8 23 10 -10 -18 -20 -20 -20 -20 4 -20 -20 26 5 16 19
-20 -20 -20 -20 -20 -20 -20 -17 -11 12 10 6 -20 -20 -20 -20 -20 -20 -20 -11 15 20 -2 -14 -20 23 25 8 -20 -20 -5 -11 -14 22 -6 -17 -20 -20 -20 -20 -20 16 26 -2
-20 -20 -20 -20 -20 -20 -18 -20 -20 -20 -20 -20 -20 -20 -20 -20 -20 -20 -20 -20 -20 -18 -18 -12 -9 1 10 -9 23 8 2 15 -17 17 23 23 -20 -20 -20 -20 -20 -6 -10 -1
-20 -20 -20 -20 -20 -20 -20 -20 -20 -20 -4 -20 -20 -20 -20 -20 -20 -20 -20 -20 -20 -20 -20 -20 -4 5 -8 15 25 16 2 12 20 24 -18 22 24 1 13 28 30 0 -15 -12
-20 -20 -20 -20 -20 -20 -20 -20 -20 -20 -20 -17 -20 -20 -20 -20 -20 -20 -20 -20 -20 -20 -20 -20 -20 -6 12 15 29 26 15 11 24 2 25 41 45 37 32 31 -10 -20 -12 -14
-20 -20 -20 -20 -20 -20 -20 -20 -20 -20 -20 -20 -20 -20 -20 -20 -20 -20 -20 -20 -20 -20 -20 -20 -20 11 -7 25 26 35 37 28 31 34 26 16 34 31 31 18 -18 19 6 -15
-20 -20 -20 -20 -20 -20 -20 -20 -20 -20 -20 -20 -20 -20 -20 -20 -20 -20 -20 -20 -20 -20 -20 -20 -20 -18 -18 -14 -1 32 38 22 35 21 19 4 -5 -10 12 18 5 -12 -20 -18
-20 -20 -20 -20 -20 -20 -20 -20 -20 -20 -20 -20 -20 -20 -20 -20 -20 -20 -20 -20 -20 -20 -20 -20 -20 -20 -20 -20 -9 11 28 36 29 30 27 24 28 25 17 15 6 18 29 25
-20 -20 -20 -20 -20 -20 -20 -20 -20 -20 -20 -20 -20 -20 -20 -20 -20 -20 -20 -20 -20 -20 -20 -20 -20 -20 -20 -20 -20 -20 -14 16 23 33 29 15 33 17 28 24 29 29 31 32
-20 -20 -20 -20 -20 -20 -20 -20 -20 -20 -20 -20 -20 -20 -20 -20 -20 -20 -20 -20 -20 -20 -20 -20 -20 -20 -20 -20 -20 -20 -20 -20 -20 -18 20 31 29 29 29 19 17 29 25 32
-20 -20 -20 -20 -20 -20 -20 -20 -20 -20 -20 -20 -20 -20 -20 -20 -20 -20 -20 -20 -20 -20 -20 -20 -20 -20 -20 -20 -20 -20 -20 -20 -20 -20 -20 17 16 23 11 24 22 23 30 22
-20 -20 -20 -20 -20 -20 -20 -20 -20 -20 -20 -20 -20 -20 -20 -20 -20 -20 -20 -20 -20 -20 -20 -20 -20 -20 -20 -20 -20 -20 -20 -20 -20 -20 -20 -20 -20 -20 -16 -0 -20 -0 -15 -19
-20 -20 -20 -20 -20 -20 -20 -20 -20 -20 -20 -20 -20 -20 -20 -20 -20 -20 -20 -20 -20 -20 -20 -20 -20 -20 -20 -20 -20 -20 -20 -20 -20 -20 -20 -20 -20 -20 -20 -20 -20 -20 -20 -20
-20 -20 -20 -20 -20 -20 -20 -20 -20 -20 -20 -20 -20 -20 -20 -20 -20 -20 -20 -20 -20 -20 -20 -20 -20 -20 -20 -20 -20 -20 -20 -20 -20 -20 -20 -20 -20 -20 -20 -20 -20 -20 -20 -20
-20 -20 -20 -20 -20 -20 -20 -20 -20 -20 -20 -20 -20 -20 -20 -20 -20 -20 -20 -20 -20 -20 -20 -20 -20 -20 -20 -20 -20 -20 -20 -20 -20 -20 -20 -20 -20 -20 -20 -20 -20 -20 -20 -20
-20 -20 -20 -20 -20 -20 -20 -20 -20 -20 -20 -20 -20 -20 -20 -20 -20 -20 -20 -20 -20 -20 -20 -20 -20 -20 -20 -20 -20 -20 -20 -20 -20 -20 -20 -20 -20 -20 -20 -20 -20 -20 -20 -20
-20 -20 -20 -20 -20 -20 -20 -20 -20 -20 -20 -20 -20 -20 -20 -20 -20 -20 -20 -20 -20 -20 -20 -20 -20 -20 -20 -20 -20 -20 -20 -20 -20 -20 -20 -20 -20 -20 -20 -20 -20 -20 -20 -20
-19 -20 -20 -20 -20 -20 -20 -20 -20 -20 -20 -20 -20 -20 -20 -20 -20 -20 -20 -20 -20 -20 -20 -20 -20 -20 -20 -20 -20 -20 -20 -20 -20 -20 -20 -20 -20 -20 -20 -20 -20 -20 -20 -20
-4 6 -3 -20 -20 -20 -20 -20 -20 -20 -20 -20 -20 -20 -20 -20 -20 -20 -20 -20 -20 -20 -20 -20 -20 -20 -20 -20 -20 -20 -20 -20 -20 -20 -20 -20 -20 -20 -20 -20 -20 -20 -20 -20
17 6 4 -20 -20 -20 -20 -20 -20 -20 -20 -20 -20 -20 -20 -20 -20 -20 -20 -20 -20 -20 -20 -20 -20 -20 -20 -20 -20 -20 -20 -20 -20 -20 -20 -20 -20 -20 -20 -20 -20 -20 -20 -20
Wind_Speed
1 7 9 7 8 12 13 11 14 14 8 8 13 12 14 10 4 9 13 17 17 21 21 22 23 21 23 17 19 18 17 17 13 11 12 11 11 10 9 11 16 17 16 18
6 11 6 8 11 12 13 14 14 13 5 9 15 15 15 3 3 9 11 14 15 19 21 24 24 22 20 11 17 18 18 17 15 12 12 11 10 11 8 8 15 15 19 18
8 9 7 9 10 12 12 10 8 13 14 16 13 19 9 8 3 10 14 13 15 18 20 22 23 22 21 8 9 16 15 16 16 16 10 9 9 9 10 10 10 14 18 17
8 2 7 9 10 8 12 1 11 10 9 6 4 1 16 0 6 13 16 17 16 18 20 17 19 20 19 19 8 12 14 15 14 14 12 15 11 12 10 12 10 11 17 18
1 6 6 9 7 8 7 4 8 9 9 9 7 5 10 5 10 15 17 17 17 16 16 17 17 18 18 17 16 9 12 14 14 13 13 12 14 11 10 10 12 14 16 17
11 4 5 6 8 5 9 6 9 10 6 5 5 5 4 5 11 14 15 17 16 17 17 15 16 16 15 15 15 10 9 12 13 13 14 16 16 14 11 9 11 9 11 11
5 4 2 5 8 6 4 5 4 5 5 0 4 6 2 5 6 8 11 13 14 14 16 17 17 16 16 16 16 8 10 12 15 15 16 16 17 16 15 14 10 14 9 9
4 3 2 3 3 5 5 4 3 4 2 3 5 4 1 2 3 7 7 10 9 14 15 17 17 15 14 16 15 15 12 12 12 13 16 15 18 12 12 15 9 9 9 10
4 2 1 2 3 4 2 3 3 3 5 5 2 5 7 4 3 8 11 12 13 13 14 17 19 17 17 16 14 13 12 8 9 12 11 14 15 16 13 14 13 11 11 9
2 6 3 1 3 6 5 3 3 3 4 5 6 3 0 4 4 8 11 13 15 14 15 16 14 15 17 16 15 16 16 8 7 7 9 8 8 13 10 12 11 11 8 9
3 2 2 3 4 3 2 2 3 2 5 4 5 4 4 2 2 6 9 10 12 14 13 15 15 16 14 16 16 16 18 14 2 6 4 4 10 8 8 5 8 8 8 8
3 5 5 2 3 2 3 3 4 4 4 2 4 5 4 3 1 3 7 8 10 11 12 13 12 14 15 15 16 17 18 15 16 12 11 11 9 8 6 5 3 6 8 8
3 3 5 5 3 3 6 6 3 1 4 6 4 1 4 5 4 2 5 7 7 8 10 12 13 13 13 15 14 14 17 19 16 15 14 14 12 11 9 7 4 4 5 6
2 3 7 4 3 2 5 8 9 5 3 4 10 13 7 5 6 4 4 5 5 6 8 9 10 11 12 12 13 13 13 13 14 14 14 14 12 11 9 9 8 9 8 8
4 5 7 13 15 13 11 11 10 11 11 6 2 9 13 12 8 6 3 4 4 5 6 7 8 9 10 11 12 13 12 11 10 11 13 13 11 11 11 12 12 11 10 9
2 4 4 6 3 7 15 16 16 17 18 19 21 23 17 5 4 6 7 4 5 4 5 5 6 7 8 10 10 10 11 11 11 11 10 8 9 9 9 10 9 9 9 9
3 3 3 5 3 6 9 14 20 11 10 14 9 6 3 5 6 8 8 7 7 5 4 4 5 5 6 7 8 9 9 9 9 10 11 10 10 9 9 9 9 9 10 8
4 2 2 6 5 4 2 1 1 14 13 15 17 15 10 9 8 7 7 9 9 7 5 4 3 3 4 5 6 6 7 7 8 9 9 8 8 8 8 9 10 11 8 8
7 3 4 4 5 13 7 7 7 7 6 12 19 15 11 7 6 14 15 13 11 8 6 4 2 3 3 4 4 4 5 6 7 8 9 9 9 9 9 9 9 7 7 7
5 7 4 1 4 6 3 8 5 3 6 9 9 9 8 6 6 4 2 13 11 9 7 6 4 3 4 2 4 4 4 5 6 7 7 7 7 8 8 7 6 5 4 4
4 6 10 9 6 11 6 11 7 3 2 7 9 8 7 9 8 4 4 5 8 10 10 8 6 6 4 2 3 3 3 4 4 4 5 6 7 7 6 6 5 4 5 5
10 8 6 5 6 10 14 9 7 3 3 7 8 8 10 12 10 6 5 6 8 9 8 9 8 7 6 4 3 3 1 2 3 3 4 5 6 4 4 5 4 5 6 6
7 11 4 9 7 2 19 8 14 3 4 4 8 7 9 9 12 11 10 11 10 10 10 9 9 8 7 6 6 5 2 1 1 1 2 3 3 4 5 5 5 4 5 5
6 9 6 6 11 16 14 18 16 11 11 9 8 9 9 11 9 10 10 10 10 11 11 10 10 10 9 9 8 7 5 4 3 3 2 1 3 3 4 3 4 4 5 5
3 8 7 16 22 19 21 19 15 14 13 15 13 12 13 12 12 11 10 10 10 10 10 10 11 10 10 9 9 8 7 7 6 4 3 2 1 3 3 4 4 4 5 4
11 15 14 13 20 15 14 12 5 10 10 10 11 11 13 13 14 12 11 9 9 10 10 10 11 10 10 10 9 9 8 8 7 5 4 2 1 0 2 3 3 4 2 5
Wind_Direction
239 287 264 300 286 292 293 279 270 264 269 310 277 284 289 296 262 321 327 332 326 320 315 310 311 303 292 255 246 234 227 221 214 213 205 211 210 227 196 208 203 193 182 180
265 257 348 325 288 282 284 276 271 272 286 262 284 279 274 172 322 340 354 340 327 320 322 322 323 318 293 269 233 229 225 215 213 213 204 205 213 203 226 200 204 189 183 180
288 298 322 282 293 283 263 284 307 304 308 277 269 258 191 189 4 351 358 352 333 332 327 327 325 329 327 307 247 225 223 219 214 209 210 208 203 217 207 215 203 190 185 182
274 42 296 293 303 320 289 247 300 273 274 265 229 303 178 265 348 357 1 351 335 332 328 323 326 331 330 334 246 251 224 221 220 211 210 208 208 204 210 210 207 197 189 184
20 281 298 293 322 311 291 320 266 262 260 292 233 257 131 38 343 354 359 343 329 333 328 323 329 332 332 331 328 244 229 219 216 214 216 217 216 208 203 201 202 198 196 189
275 304 264 314 309 280 309 262 219 227 228 246 185 227 149 13 343 348 349 335 331 333 331 331 336 334 332 332 317 270 235 227 213 216 219 224 226 218 201 184 188 198 187 190
288 200 251 283 304 204 288 285 189 181 206 149 142 240 42 28 360 359 350 329 326 334 340 336 340 342 338 338 338 290 228 226 227 211 212 218 226 226 216 194 188 186 190 189
325 188 331 16 336 307 321 333 332 339 357 26 157 250 73 108 5 351 1 340 329 345 346 343 342 342 344 341 345 343 308 218 230 218 211 218 214 218 213 205 181 174 197 193
322 199 151 252 291 301 89 245 52 297 204 257 99 172 163 196 357 355 356 355 355 347 347 344 343 351 349 347 347 335 326 254 224 218 225 225 206 203 202 204 204 196 184 197
39 290 174 147 254 216 281 2 234 211 287 283 185 248 69 195 352 350 352 359 353 358 357 353 349 354 354 356 348 354 344 318 213 216 216 240 182 200 200 203 192 192 175 186
317 250 141 227 213 330 213 225 216 269 290 305 299 113 61 107 352 338 346 351 353 359 1 359 357 6 1 359 357 356 0 350 355 231 264 203 133 130 145 167 160 151 142 164
34 302 267 320 111 283 261 300 304 281 150 232 297 279 168 157 177 309 323 340 350 0 360 7 3 12 3 3 357 360 1 6 21 52 53 59 66 71 81 94 129 165 168 171
56 223 289 174 181 201 250 198 245 206 293 246 292 70 170 202 232 254 300 324 336 353 4 11 9 15 9 10 11 7 2 8 15 31 38 45 43 52 54 63 79 105 155 148
274 263 242 287 346 334 233 225 216 210 243 299 246 282 273 223 239 250 276 305 320 338 358 13 13 16 12 13 16 14 15 15 14 23 28 37 36 44 49 52 52 64 63 87
256 265 291 270 276 270 252 256 225 213 238 245 343 280 288 298 286 256 268 278 293 313 340 6 9 11 14 19 19 19 21 19 23 34 26 29 26 33 43 47 48 52 53 50
180 276 334 275 296 269 257 257 243 245 244 255 266 276 274 298 303 231 240 233 249 269 306 339 354 4 16 13 11 17 24 27 29 37 47 37 35 37 44 42 49 57 57 53
237 292 313 276 331 311 264 237 223 219 221 217 232 253 176 255 238 240 242 228 235 234 245 298 329 349 2 13 5 14 15 25 43 41 38 40 45 44 42 54 56 52 61 67
249 215 272 285 298 263 89 102 212 225 251 231 252 263 250 254 264 266 243 246 234 224 227 234 271 312 352 355 12 9 25 33 39 49 47 46 50 49 50 51 50 49 44 52
215 268 266 278 280 286 225 200 185 191 278 227 237 255 257 241 269 263 237 227 230 224 223 240 257 288 315 342 1 3 30 44 47 45 44 38 42 50 46 49 49 47 49 29
202 242 253 283 271 271 78 143 132 141 266 186 206 237 244 175 246 265 170 197 207 207 206 212 230 258 276 329 334 348 25 46 49 37 39 48 49 53 58 52 49 51 56 69
194 215 222 221 254 277 113 147 150 216 64 171 195 222 199 206 241 87 131 178 200 199 202 201 205 226 243 274 300 319 1 36 24 34 37 38 49 45 43 58 52 47 56 60
195 193 208 201 215 262 140 137 214 77 146 179 199 213 216 230 250 206 205 205 197 201 203 201 210 213 208 206 240 258 310 33 3 7 33 34 38 42 35 46 40 35 34 40
234 220 284 221 228 75 187 224 219 324 284 203 221 211 228 235 238 237 226 216 214 213 206 209 218 215 209 211 216 227 196 201 321 316 57 48 50 39 43 37 22 24 33 30
232 246 243 291 242 251 215 239 260 261 254 256 241 247 218 232 241 247 237 230 218 210 213 208 213 222 219 216 212 227 188 191 204 194 153 89 62 9 30 22 35 356 17 9
221 151 230 261 265 271 270 253 254 255 244 243 250 244 246 238 235 230 229 225 223 222 210 206 211 220 225 216 215 213 198 192 203 200 195 204 59 35 12 21 17 2 42 28
207 227 227 250 255 262 273 286 261 244 238 235 240 240 230 235 241 235 234 226 217 211 204 205 209 211 216 218 212 214 202 202 209 206 200 197 184 305 344 343 333 129 75 14